Regional Weather Roundup
Issued by NWS

Home | Current Version | Previous Version | Graphics & Text | Print | Product List | Glossary On
Versions: 1 2 3 4 5 6 7 8 9 10 11 12 13 14 15 16 17 18 19 20 21 22 23 24 25 26 27 28 29 30 31 32 33 34 35 36 37 38 39 40 41 42 43 44 45 46 47 48 49 50
000
ASUS43 KLOT 272103
RWRIL

ILLINOIS REGIONAL WEATHER ROUNDUP
NATIONAL WEATHER SERVICE CHICAGO/ROMEOVILLE IL
400 PM CDT SAT AUG 27 2016

NOTE: "FAIR" INDICATES FEW OR NO CLOUDS BELOW 12,000 FEET WITH NO
SIGNIFICANT WEATHER AND/OR OBSTRUCTIONS TO VISIBILITY.

* THESE STATIONS ARE NOT UNDER NWS QUALITY CONTROL. THEY ALSO MAY NOT
  REPORT WEATHER SUCH AS PRECIPITATION OR FOG.

ILZ001-002-007-009-015-016-024-272200-
NORTHWEST ILLINOIS

CITY           SKY/WX    TMP DP  RH WIND       PRES   REMARKS
MOLINE         MOSUNNY   84  69  60 SW9       29.99F HX  88
STERLING*      PTSUNNY   84  72  67 SW9       30.00S HX  89
SAVANNA*       CLOUDY    82  69  66 SW8       30.00S HX  85
$$

ILZ003-004-008-010-011-017-018-272200-
NORTH CENTRAL ILLINOIS

CITY           SKY/WX    TMP DP  RH WIND       PRES   REMARKS
ROCKFORD       CLOUDY    81  70  69 SW9       30.01S HX  84
FREEPORT*      CLOUDY    80  69  68 SW10      30.02S HX  83
ROCHELLE*      CLOUDY    82  73  75 S9        30.01S HX  87
$$

ILZ005-006-012>014-019>023-272200-
NORTHEAST ILLINOIS

CITY           SKY/WX    TMP DP  RH WIND       PRES   REMARKS
CHICAGO-OHARE  PTSUNNY   81  71  71 SW8       30.01F HX  85
CHICAGO-MIDWAY PTSUNNY   86  70  58 S10       30.01S HX  90
AURORA         MOSUNNY   82  72  71 S7        30.02F HX  87
LANSING*       PTSUNNY   84  76  76 SW7       30.02F HX  93
JOLIET*        MOSUNNY   86  74  66 SW7       30.02S HX  93
WAUKEGAN       CLOUDY    80  70  71 VRB7      30.00F HX  83
DUPAGE AIRPORT MOSUNNY   83  70  64 SW10      30.01F HX  87
KANKAKEE*      MOSUNNY   86  73  64 SW10      30.04S HX  93
WHEELING       MOSUNNY   83  70  64 VRB6      30.02F HX  87
MORRIS*        MOSUNNY   85  73  67 SW7       30.01F HX  91
ROMEOVILLE*    MOSUNNY   83  75  74 SW8       30.03S HX  91
NORTHERLY ISL    N/A     83  68  60 SW7         N/A  HX  86
$$

LMZ740>746-272200-
SOUTHERN LAKE MICHIGAN

STATION/POSITION SKY/WX   TEMP    WIND        PRES    VSBY  WAVE
                          AIR SEA DIR/SP/G                  HT/PER
                          (F)     (DEG/KT/KT) (MB)    (MI)  (FT/S)
SOUTHERN BUOY              74 75  170/ 12/ 14 1016.3          3/ 4
WILMETTE HARBOR            72 69  150/  4/  6   N/A           2/ 4
HARRISON CRIB              80     160/  5/  7   N/A
BURNHAM HARBOR             83     180/  8/ 14   N/A
CALUMET HARBOR             82     200/  7/  9 1016.1F
BURNS HARBOR               83     190/ 10/ 15 1017.3F
MICHIGAN CITY              81     160/ 13/ 14   N/A
MICHIGAN CITY 6N           78 76  190/  6/  8   N/A           1
ST. JOSEPH                 78 76  190/  4/  6 1016.8F         1/ 2
$$

ILZ025>027-034>036-040-047-049-050-058-095>099-272200-
WEST-CENTRAL ILLINOIS

CITY           SKY/WX    TMP DP  RH WIND       PRES   REMARKS
QUINCY         MOSUNNY   86  74  67 S10       30.01F HX  94
GALESBURG*     MOSUNNY   83  72  69 SW6       30.01F HX  88
MACOMB*        PTSUNNY   83  74  72 S6        30.03F HX  90
JACKSONVILLE*  CLOUDY    86  72  63 W7        30.02S HX  92
PITTSFIELD*    MOSUNNY   87  74  65 S6        30.03F HX  95
$$

ILZ028>032-037-038-041>044-048-051>054-059>061-272200-
CENTRAL ILLINOIS

CITY           SKY/WX    TMP DP  RH WIND       PRES   REMARKS
PONTIAC        MOSUNNY   86  74  67 SW7       30.04S HX  93
BLOOMINGTON    MOSUNNY   84  71  65 SW7       30.05F HX  89
DECATUR        PTSUNNY   86  74  67 S5        30.04S HX  94
PEORIA         MOSUNNY   84  72  67 S8        30.02F HX  89
LACON*         PTSUNNY   82  71  69 SW7       30.01F HX  87
LINCOLN*       MOSUNNY   89  73  60 S6        30.02F HX  97
SPRINGFIELD    SUNNY     90  70  51 SW5       30.02F HX  95
TAYLORVILLE    MOSUNNY   86  74  66 SW6       30.03S HX  94
$$

ILZ033-039-045-046-055>057-062-063-272200-
EAST-CENTRAL ILLINOIS

CITY           SKY/WX    TMP DP  RH WIND       PRES   REMARKS
CHAMPAIGN      PTSUNNY   84  73  69 S7        30.05S HX  90
RANTOUL*       PTSUNNY   87  77  71 SW9       30.04F HX  98
MATTOON        PTSUNNY   83  71  67 S9        30.05S HX  87
PARIS*         MOSUNNY   85  74  70 CALM      30.06F HX  93
$$

ILZ079-100>102-272200-
SOUTHWEST ILLINOIS

CITY           SKY/WX    TMP DP  RH WIND       PRES   REMARKS
ALTON          PTSUNNY   86  72  62 SE7       30.02F HX  92
BELLEVILLE     SUNNY     89  72  56 S9        30.01F HX  96
CAHOKIA*       MOSUNNY   91  72  53 SE8       30.01F HX  98
SPARTA*        MOSUNNY   85  74  68 SE5       30.04F HX  93
$$

ILZ064>066-069>071-074>076-080>082-084>086-088>090-092>094-272200-
SOUTH-CENTRAL ILLINOIS

CITY           SKY/WX    TMP DP  RH WIND       PRES   REMARKS
CARBONDALE     MOSUNNY   87  73  62 S8        30.03F HX  94
EFFINGHAM*     MOSUNNY   87  74  64 S8        30.06F HX  95
MARION         MOSUNNY   88  75  66 S8        30.04F HX  97
MT. VERNON     MOSUNNY   90  72  55 S3        30.05F HX  96
CENTRALIA*     SUNNY     88  75  65 S6        30.04S HX  97
SALEM*         PTSUNNY   88  73  62 S6        30.05S HX  96
METROPOLIS*    MOSUNNY   90  76  61 S3        30.04F HX 101
$$

ILZ067-068-072-073-078-083-087-091-272200-
SOUTHEAST ILLINOIS

CITY           SKY/WX    TMP DP  RH WIND       PRES   REMARKS
LAWRENCEVILLE  MOSUNNY   88  74  63 SW9       30.05F HX  96
FLORA*         MOSUNNY   87  74  64 SE7       30.05F HX  95
FAIRFIELD*     PTSUNNY   85  74  70 SE5       30.04F HX  93
HARRISBURG*    SUNNY     88  76  66 W3        30.04F HX  98
ROBINSON*      SUNNY     85  73  67 S6        30.06F HX  92
CARMI*         MOSUNNY   88  77  69 E3        30.03F HX 100
$$

ABBREVIATIONS USED IN REMARKS
   TC - TEMPERATURE IN CELSIUS
  WCI - WIND CHILL INDEX
   HX - HEAT INDEX
  VSB - VISIBILITY
$$





USA.gov is the U.S. government's official web portal to all federal, state and local government web resources and services.